sat.trackr.live / text

‹ back to catalog

STARLINK-31168

NORAD 58798 · 2024-012M

PAYLOAD ACTIVE UNKNOWN

§ Identity

Operator
Country
US
Launch date
2024-01-15
Launch site
AFETR
Launch vehicle
Mass (kg)
RCS (m²)

Purposes: comms

External: N2YO · Heavens-Above · Gunter

§ Orbital elements

Epoch: 2026-05-24T23:28:44.414112Z

Period
94.27 min
Inclination
43.0034°
Eccentricity
0.0001175
Mean motion
15.27593441 rev/d
Perigee alt
482.2 km
Apogee alt
483.8 km
Semi-major
6,861.1 km
B*
-4.0907e-5
RAAN
94.3805°
Arg perigee
283.1954°
Mean anomaly
76.8767°
Rev number
13,290

§ Raw data

STARLINK-311681 58798U 24012M   26144.97829183 -.00001388  00000+0 -40907-4 0  99952 58798  43.0034  94.3805 0001175 283.1954  76.8767 15.27593441132905

JSON: /api/v1/satellites/58798 · /tle

For live sub-satellite position, see the globe view (requires WebGL).

§ Visibility from observer

Set your observer location to see the next 7 days of passes ≥ 10°. The values pass through the URL so the page stays shareable.

No JS? Fill the form by hand. The geolocation button needs JavaScript.